Location: *
(43.0833°N, 13.0500°E)
Time: 04:57:42
(UTC+00:00)

Cosmos 2369 - Pass Details

Date: 15 November 2019
Orbit: 838 x 858 km, 71.0° (Epoch: 07 December)

Event Time Altitude Azimuth Distance (km) Brightness Sun altitude
Rises 17:11:26 0° 196° (SSW) 3,380 7.2 -15.9°
Reaches altitude 10° 17:13:51 10° 194° (SSW) 2,452 6.4 -16.4°
Maximum altitude 17:19:27 71° 112° (ESE) 896 3.6 -17.4°
Enters shadow 17:24:10 15° 30° (NNE) 2,127 5.4 -18.2°
